St. Paul Island, Nova Scotia

9:02 AM ADT on June 22, 2018 (GMT -0300)
St. Paul Island

Weather History for CWEF - January, 2011

Change the Weather History Date:

Sunday, January 2, 2011

  Actual Average (WUND) Record (WUND)
Temperature  
Mean Temperature 37 °F -  
Max Temperature 38 °F - - (-1)
Min Temperature 36 °F - - (-1)
Degree Days  
Heating Degree Days 28    
Moisture  
Dew Point 34 °F    
Average Humidity 88    
Maximum Humidity 96    
Minimum Humidity 76    
Precipitation  
Precipitation 0.00 in - - ()
Sea Level Pressure  
Sea Level Pressure 29.82 in    
Wind  
Wind Speed 26 mph ()    
Max Wind Speed 39 mph    
Max Gust Speed 45 mph    
Averages and records for this station are not official NWS values.
T = Trace of Precipitation, MM = Missing Value Source: Averaged Metar Reports

Daily Weather History Graph

Daily Weather History Graph

Search for Another Location

Airport or City:

Astronomy

Jan. 02, 2011 Rise Set
Actual Time 7:47 AM AST 4:21 PM AST
Civil Twilight 7:11 AM AST 4:57 PM AST
Nautical Twilight 6:33 AM AST 5:36 PM AST
Astronomical Twilight 5:55 AM AST 6:13 PM AST
Moon 6:20 AM AST (1/2) 2:44 PM AST (1/2)
Length of Visible Light 9h 45m
Length of Day
8h 34m
Waning Crescent, 3% of the Moon is Illuminated
Jan 2
Waning Crescent
Jan 4
New
Jan 12
First Quarter
Jan 19
Full
Jan 26
Last Quarter

Hourly Weather History & Observations

Time (AST) Temp. Windchill Dew Point Humidity Pressure Visibility Wind Dir Wind Speed Gust Speed Precip Events Conditions
12:00 AM 36.7 °F 23.8 °F 31.6 °F 82% 29.91 in - North 31.1 mph 38.0 mph N/A   Unknown
12:40 AM 36.3 °F 22.9 °F 31.3 °F 82% 29.89 in - North 33.4 mph - N/A   Unknown
1:00 AM 36.3 °F 23.1 °F 31.6 °F 83% 29.88 in - NNW 32.2 mph 39.1 mph N/A   Unknown
1:40 AM 36.7 °F 24.2 °F 31.6 °F 82% 29.90 in - NNW 28.8 mph 34.5 mph N/A   Unknown
2:00 AM 37 °F - 32 °F 76% 29.89 in - NNW 28.8 mph - -  
2:00 AM 36.7 °F 24.2 °F 31.8 °F 83% 29.89 in - NNW 28.8 mph - N/A   Unknown
2:40 AM 36.7 °F 23.8 °F 31.8 °F 83% 29.89 in - NNW 31.1 mph 38.0 mph N/A   Unknown
3:00 AM 36.7 °F 23.6 °F 31.6 °F 82% 29.90 in - NNW 32.2 mph - N/A   Unknown
3:40 AM 36.3 °F 23.7 °F 31.8 °F 84% 29.89 in - NW 28.8 mph - N/A   Unknown
4:00 AM 36.7 °F 24.4 °F 33.1 °F 87% 29.88 in - NW 27.6 mph - N/A   Unknown
4:40 AM 36.1 °F 22.4 °F 31.3 °F 83% 29.86 in - NW 34.5 mph 40.3 mph N/A   Unknown
5:00 AM 36.1 °F 21.7 °F 31.3 °F 83% 29.84 in - NW 39.1 mph 44.9 mph N/A   Unknown
5:40 AM 36.1 °F 22.3 °F 33.1 °F 89% 29.87 in - NW 35.7 mph 42.6 mph N/A   Unknown
6:00 AM 36.0 °F 22.4 °F 31.3 °F 83% 29.87 in - NW 33.4 mph - N/A   Unknown
6:40 AM 36.0 °F 22.8 °F 32.9 °F 89% 29.87 in - NW 31.1 mph - N/A   Unknown
7:00 AM 36.3 °F 23.3 °F 33.3 °F 89% 29.87 in - NW 31.1 mph - N/A   Unknown
7:40 AM 36.1 °F 23.0 °F 32.9 °F 88% 29.87 in - NW 31.1 mph - N/A   Unknown
8:00 AM 36 °F - 33 °F 84% 29.87 in - NW 31.1 mph - -  
8:00 AM 36.1 °F 23.0 °F 32.9 °F 88% 29.87 in - NW 31.1 mph - N/A   Unknown
8:40 AM 37.0 °F 24.7 °F 34.0 °F 89% 29.87 in - NNW 28.8 mph 34.5 mph N/A   Unknown
9:00 AM 37.0 °F 23.9 °F 33.8 °F 88% 29.85 in - NW 33.4 mph - N/A   Unknown
9:40 AM 37.2 °F 25.4 °F 34.0 °F 88% 29.88 in - NNW 26.5 mph - N/A   Unknown
10:00 AM 37.4 °F 25.6 °F 34.0 °F 87% 29.86 in - NNW 26.5 mph - N/A   Unknown
10:40 AM 37.8 °F 26.1 °F 34.5 °F 88% 29.85 in - NW 26.5 mph - N/A   Unknown
11:00 AM 37.4 °F 24.8 °F 34.2 °F 88% 29.82 in - NW 31.1 mph - N/A   Unknown
11:40 AM 37.4 °F 24.8 °F 34.2 °F 88% 29.81 in - NW 31.1 mph - N/A   Unknown
12:00 PM 37.4 °F 25.9 °F 34.2 °F 88% 29.82 in - NW 25.3 mph 32.2 mph N/A   Unknown
12:40 PM 37.6 °F 25.6 °F 34.2 °F 87% 29.80 in - NW 27.6 mph - N/A   Unknown
1:00 PM 37.6 °F 24.8 °F 34.3 °F 88% 29.76 in - NNW 32.2 mph - N/A   Unknown
1:40 PM 37.6 °F 25.9 °F 34.5 °F 89% 29.78 in - NNW 26.5 mph - N/A   Unknown
2:00 PM 38 °F - 35 °F 84% 29.77 in - NNW 24.2 mph - -  
2:00 PM 37.9 °F 26.8 °F 34.9 °F 89% 29.77 in - NNW 24.2 mph - N/A   Unknown
2:40 PM 37.6 °F 25.9 °F 34.3 °F 88% 29.78 in - NNW 26.5 mph - N/A   Unknown
3:00 PM 37.6 °F 26.6 °F 34.3 °F 88% 29.78 in - NNW 23.0 mph - N/A   Unknown
3:40 PM 37.8 °F 26.8 °F 34.9 °F 89% 29.79 in - NNW 23.0 mph - N/A   Unknown
4:00 PM 37.6 °F 26.6 °F 34.9 °F 90% 29.77 in - North 23.0 mph - N/A   Unknown
4:40 PM 37.6 °F 26.3 °F 35.2 °F 91% 29.76 in - North 24.2 mph - N/A   Unknown
5:00 PM 37.6 °F 26.6 °F 35.2 °F 91% 29.75 in - North 23.0 mph - N/A   Unknown
5:40 PM 37.4 °F 26.1 °F 35.2 °F 92% 29.77 in - North 24.2 mph - N/A   Unknown
6:00 PM 37.8 °F 27.7 °F 35.6 °F 92% 29.78 in - North 19.6 mph - N/A   Unknown
6:40 PM 37.6 °F 27.1 °F 35.8 °F 93% 29.78 in - NNW 20.7 mph - N/A   Unknown
7:00 PM 37.4 °F 27.2 °F 35.6 °F 93% 29.77 in - North 19.6 mph - N/A   Unknown
7:40 PM 37.9 °F 28.9 °F 36.5 °F 95% 29.78 in - North 16.1 mph - N/A   Unknown
8:00 PM 38 °F - 37 °F 93% 29.77 in - North 18.4 mph - -  
8:00 PM 38.1 °F 28.4 °F 36.7 °F 95% 29.77 in - North 18.4 mph - N/A   Unknown
8:40 PM 37.9 °F 28.9 °F 36.7 °F 95% 29.77 in - NNE 16.1 mph - N/A   Unknown
10:00 PM 37.9 °F 31.5 °F 36.7 °F 95% 29.76 in - NNE 9.2 mph - N/A   Unknown
10:40 PM 38.1 °F 32.9 °F 36.9 °F 95% 29.75 in - NE 6.9 mph - N/A   Unknown
11:00 PM 38.3 °F 31.9 °F 37.0 °F 95% 29.74 in - East 9.2 mph - N/A   Unknown
11:40 PM 38.3 °F 32.5 °F 37.2 °F 96% 29.75 in - ESE 8.1 mph - N/A   Unknown